EW9945 Weather Reports


time (UTC)temp
F
wind
direction
speed
knots
gust
knots
rain 1hr
in
rain 24hr
in
rain mn
in
humidity
%
barometer
mb
20260906164519 69 5 3.5 13.9 0.00 0.00 0.00 65 1016.9
20260906163018 72 53 0.0 10.4 0.00 0.00 0.00 64 1016.8
20260906161517 71 360 4.3 7.0 0.00 0.00 0.00 66 1017.0
20260906160014 70 325 1.7 7.0 0.00 0.00 0.00 69 1017.2
20260906154511 68 11 3.5 7.8 0.00 0.00 0.00 73 1017.3
20260906153016 68 5 2.6 9.6 0.00 0.00 0.00 72 1017.0
20260906151511 68 11 0.0 5.2 0.00 0.00 0.00 74 1017.1
20260906150007 66 30 0.0 5.2 0.00 0.00 0.00 78 1017.1
20260906144513 67 332 3.5 7.0 0.00 0.00 0.00 77 1017.1
20260906143007 66 5 3.5 11.3 0.00 0.00 0.00 79 1016.9
20260906141600 65 317 4.3 9.6 0.00 0.00 0.00 82 1017.0
20260906140106 64 341 2.6 9.6 0.00 0.00 0.00 82 1016.8
20260906134557 64 9 0.9 7.0 0.00 0.00 0.00 84 1016.6
20260906133121 63 355 2.6 10.4 0.00 0.00 0.00 84 1016.6
20260906131612 62 350 2.6 7.8 0.00 0.00 0.00 88 1016.6
20260906130058 62 338 2.6 8.7 0.00 0.00 0.00 90 1016.8
20260906124548 61 355 0.9 6.1 0.00 0.00 0.00 91 1016.6
20260906123050 60 360 0.0 3.5 0.00 0.00 0.00 93 1016.4
20260906121548 59 360 0.9 3.5 0.00 0.00 0.00 93 1016.3
20260906120047 59 5 0.0 8.7 0.00 0.01 0.00 93 1016.3
20260906114540 58 331 0.0 3.5 0.00 0.01 0.00 93 1016.1
20260906113039 58 331 0.0 0.9 0.00 0.01 0.00 93 1015.9
20260906111537 58 331 0.0 0.9 0.00 0.01 0.00 93 1015.9
20260906110034 57 331 0.0 0.0 0.00 0.01 0.00 93 1015.8
20260906104531 57 331 0.0 0.0 0.00 0.01 0.00 93 1015.7
20260906103030 56 331 0.0 0.0 0.00 0.01 0.00 93 1015.5
20260906101531 56 331 0.0 0.0 0.00 0.01 0.00 93 1015.5
20260906100029 56 331 0.0 0.0 0.00 0.01 0.00 93 1015.5
20260906094528 56 331 0.0 0.0 0.00 0.01 0.00 93 1015.5
20260906093031 56 331 0.0 0.0 0.00 0.01 0.00 93 1015.3
20260906091522 55 331 0.0 0.0 0.00 0.01 0.00 93 1015.1
20260906090021 56 331 0.0 0.0 0.00 0.01 0.01 93 1015.0
20260906084521 56 331 0.0 0.0 0.00 0.01 0.01 93 1014.9
20260906083023 56 331 0.0 0.0 0.00 0.01 0.01 93 1014.7
20260906081525 55 331 0.0 0.0 0.00 0.01 0.01 93 1014.5
20260906080018 55 331 0.0 0.0 0.00 0.01 0.01 93 1014.4
20260906074518 55 331 0.0 0.0 0.00 0.01 0.01 93 1014.4
20260906073018 54 331 0.0 0.0 0.00 0.01 0.01 92 1014.4
20260906071520 55 331 0.0 0.0 0.00 0.01 0.01 92 1014.3
20260906070018 55 331 0.0 0.0 0.00 0.01 0.01 92 1014.3
20260906064520 55 331 0.0 0.0 0.00 0.01 0.01 92 1014.3
20260906063015 56 331 0.0 0.0 0.00 0.01 0.01 92 1014.3
20260906061513 56 331 0.0 0.0 0.00 0.01 0.01 92 1014.5
20260906060021 56 331 0.0 0.0 0.00 0.01 0.01 92 1014.5
20260906054512 56 331 0.0 0.0 0.00 0.01 0.01 91 1014.5
20260906053019 57 331 0.0 0.0 0.00 0.01 0.01 91 1014.4
20260906051510 57 331 0.0 0.0 0.00 0.01 0.01 91 1014.4
20260906050010 57 331 0.0 0.0 0.00 0.01 0.01 91 1014.3
20260906044510 57 331 0.0 0.0 0.00 0.01 0.01 91 1014.4
20260906043010 58 331 0.0 0.0 0.00 0.01 0.01 90 1014.5
20260906041512 58 331 0.0 0.0 0.00 0.01 0.01 90 1014.4
20260906040007 59 331 0.0 0.0 0.00 0.01 0.01 90 1014.3
20260906034506 59 331 0.0 0.0 0.00 0.01 0.01 90 1014.3
20260906033007 59 331 0.0 0.0 0.00 0.01 0.01 89 1014.3
20260906031504 59 331 0.0 0.0 0.00 0.01 0.01 89 1014.1
20260906030004 59 331 0.0 0.0 0.00 0.01 0.01 88 1014.0
20260906024502 60 331 0.0 0.0 0.00 0.01 0.01 87 1013.9
20260906023002 61 331 0.0 0.0 0.00 0.01 0.01 84 1014.0
20260906021510 61 331 0.0 0.0 0.00 0.01 0.01 82 1013.9
20260906020003 62 331 0.0 0.0 0.00 0.01 0.01 81 1013.9
20260906014503 63 335 0.0 0.0 0.00 0.01 0.01 80 1013.8
20260906013100 64 335 0.0 0.0 0.00 0.01 0.01 79 1013.6
20260906011612 64 335 0.0 0.0 0.00 0.01 0.01 79 1013.6
20260906010057 64 335 0.0 0.0 0.00 0.01 0.01 77 1013.4
20260906004556 65 335 0.0 1.7 0.00 0.01 0.01 77 1013.4
20260906003054 65 333 1.7 4.3 0.00 0.01 0.01 76 1013.1
20260906001600 66 9 1.7 4.3 0.00 0.01 0.01 74 1013.2
20260906000054 67 9 0.9 4.3 0.00 0.01 0.01 72 1012.8
20260905234553 67 9 0.0 2.6 0.00 0.01 0.01 70 1012.7
20260905233111 68 33 0.0 2.6 0.00 0.01 0.01 68 1012.7
20260905231557 69 349 0.0 5.2 0.00 0.01 0.01 67 1012.7
20260905230053 70 313 1.7 4.3 0.00 0.01 0.01 66 1012.6
20260905224610 71 355 1.7 7.0 0.00 0.01 0.01 64 1012.6
20260905223055 71 355 0.9 5.2 0.00 0.01 0.01 62 1012.6
20260905221553 72 350 0.0 6.1 0.00 0.01 0.01 62 1012.3
20260905220051 72 345 0.0 5.2 0.00 0.01 0.01 63 1012.3
20260905214554 72 360 2.6 7.8 0.00 0.01 0.01 62 1012.1
20260905213051 72 314 1.7 5.2 0.00 0.01 0.01 60 1012.1
20260905211551 75 346 2.6 7.0 0.00 0.01 0.01 54 1011.9
20260905210053 74 11 0.9 6.1 0.00 0.01 0.01 59 1012.0
20260905204552 74 21 0.0 6.1 0.00 0.01 0.01 59 1012.0
20260905203053 73 333 4.3 8.7 0.00 0.01 0.01 58 1012.0
20260905201558 73 348 3.5 7.8 0.00 0.01 0.01 58 1012.0
20260905200051 73 350 2.6 7.0 0.00 0.01 0.01 59 1011.9
20260905194549 73 345 3.5 7.8 0.00 0.01 0.01 56 1012.0
20260905193049 74 289 4.3 7.8 0.00 0.01 0.01 55 1011.9
20260905191552 76 350 0.9 4.3 0.00 0.01 0.01 56 1012.0
20260905190100 75 350 0.0 7.8 0.00 0.01 0.01 54 1012.0
20260905184602 75 290 1.7 4.3 0.00 0.01 0.01 55 1012.2
20260905183047 75 355 0.9 7.0 0.00 0.01 0.01 56 1012.3
20260905181545 74 306 0.0 7.0 0.00 0.01 0.01 57 1012.2
20260905180044 72 355 3.5 7.0 0.00 0.01 0.01 61 1012.4
20260905174553 73 343 2.6 5.2 0.00 0.01 0.01 56 1012.4
20260905173043 74 11 1.7 7.0 0.00 0.01 0.01 60 1012.5
20260905171540 71 323 3.5 7.8 0.00 0.01 0.01 63 1012.6
20260905170041 70 306 3.5 6.1 0.00 0.01 0.01 65 1012.7